Overview Statistics Trail Chart Weather Telemetry Raw packets
 

This is the latest recevied weather packets stored in our database for station/object EW1958. If no packets are shown the sender has not sent any weather packets the latest 10 day(s).

<< 76 77 78 79 80 81 82 >>
Time Temp. Humidity Pressure Rain* Wind** Luminosity Snow
1788130629 18.89° C 64% 1021.5 hPa 0 mm - - -
1788130329 18.89° C 62% 1021.5 hPa 0 mm - - -
1788130027 18.89° C 61% 1021.5 hPa 0 mm - - -
1788129876 18.89° C 62% 1021.6 hPa 0 mm - - -
1788129426 18.89° C 62% 1021.6 hPa 0 mm - - -
1788129126 18.89° C 62% 1021.7 hPa 0 mm - - -
1788128826 18.89° C 61% 1021.7 hPa 0 mm - - -
1788128525 18.89° C 63% 1021.7 hPa 0 mm - - -
1788128227 18.89° C 65% 1021.9 hPa 0 mm - - -
1788127926 19.44° C 63% 1021.7 hPa 0 mm - - -
1788127625 19.44° C 62% 1021.7 hPa 0 mm - - -
1788127491 19.44° C 64% 1021.8 hPa 0 mm - - -
1788127484 19.44° C 59% 1021.8 hPa 0 mm - - -
1788126851 20° C 62% 1021.8 hPa 0 mm - - -
1788126421 20° C 59% 1021.8 hPa 0 mm - - -
1788126122 20° C 64% 1021.9 hPa 0 mm - - -
1788125816 20.56° C 61% 1021.8 hPa 0 mm - - -
1788125514 20.56° C 61% 1021.9 hPa 0 mm - - -
1788125214 20.56° C 58% 1022 hPa 0 mm - - -
1788125035 20.56° C 60% 1022 hPa 0 mm - - -
1788124733 20.56° C 58% 1022.1 hPa 0 mm - - -
1788124306 20.56° C 57% 1022.2 hPa 0 mm - - -
1788124133 20.56° C 58% 1022.2 hPa 0 mm - - -
1788123702 20.56° C 58% 1022.2 hPa 0 mm - - -
1788123403 20.56° C 60% 1022.2 hPa 0 mm - - -

* Rain latest hour (hover to see other rain measurements)
** Current wind speed in m/s (hover to see current wind gust speed)